,,Stat1,,Stat2,,Stat3,,Stat4,,Wind1,,Wind1,
time,status,PR1M_SUM,status,RH1M_AVG,status,SR1M_AVG,status,TA1M_AVG,status,W1dAve1m,status,W1sAve1m,
1999-11-04, 00:01:00,VALID,0,VALID,96.764,VALID,0,VALID,18.1618,VALID,49,VALID,0,
1999-11-04, 00:02:01,VALID,0,VALID,96.7132,VALID,0,VALID,18.1584,VALID,148,VALID,0,
1999-11-04, 00:03:00,VALID,0,VALID,96.7627,VALID,0,VALID,18.1653,VALID,199,VALID,0,
1999-11-04, 00:04:00,VALID,0,VALID,97.19,VALID,0,VALID,18.181,VALID,194,VALID,0,
1999-11-04, 00:05:00,VALID,0,VALID,97.6491,VALID,0,VALID,18.2588,VALID,72,VALID,0.231055,
1999-11-04, 00:06:00,VALID,0,VALID,96.2363,VALID,0,VALID,18.2267,VALID,73,VALID,0.493877,
1999-11-04, 00:07:00,VALID,0,VALID,95.9489,VALID,-0.0169808,VALID,18.2172,VALID,117,VALID,0.292863,
1999-11-04, 00:08:00,VALID,0,VALID,96.2287,VALID,0,VALID,18.1911,VALID,83,VALID,0.474559,
1999-11-04, 00:09:00,VALID,0,VALID,96.3609,VALID,-0.0339617,VALID,18.172,VALID,58,VALID,0.10597,
1999-11-04, 00:10:00,VALID,0,VALID,96.75,VALID,-0.0169808,VALID,18.1814,VALID,94,VALID,0.519637,
1999-11-04, 00:11:00,VALID,0,VALID,96.8556,VALID,-0.0169808,VALID,18.1745,VALID,112,VALID,0.353002,
1999-11-04, 00:12:00,VALID,0,VALID,96.7869,VALID,-0.0169808,VALID,18.165,VALID,107,VALID,0,
1999-11-04, 00:13:01,VALID,0,VALID,96.6585,VALID,0,VALID,18.1657,VALID,117,VALID,0.000600962,
1999-11-04, 00:14:00,VALID,0,VALID,96.5186,VALID,-0.0339617,VALID,18.1457,VALID,166,VALID,0.000400641,
1999-11-04, 00:15:00,VALID,0,VALID,96.5949,VALID,-0.0169808,VALID,18.1394,VALID,231,VALID,0.120683,
1999-11-04, 00:16:00,VALID,0,VALID,97.3566,VALID,0,VALID,18.1556,VALID,248,VALID,0.327744,
1999-11-04, 00:17:00,VALID,0,VALID,97.6096,VALID,0,VALID,18.175,VALID,244,VALID,0.346284,
1999-11-04, 00:18:00,VALID,0,VALID,97.6554,VALID,0.0169808,VALID,18.1648,VALID,262,VALID,0.165148,
1999-11-04, 00:19:00,VALID,0,VALID,97.8195,VALID,0,VALID,18.1847,VALID,258,VALID,0.288261,
1999-11-04, 00:20:00,VALID,0,VALID,96.7856,VALID,-0.0509425,VALID,18.114,VALID,1,VALID,0.185444,
1999-11-04, 00:21:00,VALID,0,VALID,96.3609,VALID,-0.0169808,VALID,18.0916,VALID,25,VALID,0.109961,
1999-11-04, 00:22:00,VALID,0,VALID,96.305,VALID,-0.0169808,VALID,18.0561,VALID,104,VALID,0.489654,
1999-11-04, 00:23:00,VALID,0,VALID,96.5707,VALID,0,VALID,18.0272,VALID,124,VALID,0.520032,
1999-11-04, 00:24:00,VALID,0,VALID,97.073,VALID,-0.0509425,VALID,18.0242,VALID,121,VALID,0.395693,
1999-11-04, 00:25:00,VALID,0,VALID,97.5092,VALID,-0.0169808,VALID,18.0339,VALID,98,VALID,0.541385,
1999-11-04, 00:26:00,VALID,0,VALID,97.8703,VALID,-0.0339617,VALID,18.0565,VALID,110,VALID,0.502262,
1999-11-04, 00:27:00,VALID,0,VALID,98.0661,VALID,0,VALID,18.0695,VALID,141,VALID,0.104852,
1999-11-04, 00:28:00,VALID,0,VALID,97.8843,VALID,-0.0509425,VALID,18.0565,VALID,149,VALID,0.0410156,
1999-11-04, 00:29:00,VALID,0,VALID,97.7025,VALID,-0.0169808,VALID,18.0533,VALID,132,VALID,0.141544,
1999-11-04, 00:30:00,VALID,0,VALID,98.0509,VALID,-0.0339617,VALID,18.1246,VALID,115,VALID,0.394737,
1999-11-04, 00:31:00,VALID,0,VALID,97.4087,VALID,0,VALID,18.0727,VALID,98,VALID,0.213006,
1999-11-04, 00:32:00,VALID,0,VALID,97.148,VALID,0,VALID,18.0461,VALID,98,VALID,0,
1999-11-04, 00:33:00,VALID,0,VALID,97.3591,VALID,-0.0169808,VALID,18.0528,VALID,98,VALID,0,
1999-11-04, 00:34:01,VALID,0,VALID,97.7889,VALID,0,VALID,18.0951,VALID,98,VALID,0,
1999-11-04, 00:35:00,VALID,0,VALID,97.4596,VALID,0,VALID,18.063,VALID,98,VALID,0,
1999-11-04, 00:36:00,VALID,0,VALID,96.7246,VALID,0.0169808,VALID,18.0076,VALID,98,VALID,0,
1999-11-04, 00:37:00,VALID,0,VALID,95.603,VALID,-0.0169808,VALID,17.9397,VALID,107,VALID,0.29223,
1999-11-04, 00:38:00,VALID,0,VALID,95.893,VALID,0,VALID,17.8915,VALID,87,VALID,0.532072,
1999-11-04, 00:39:00,VALID,0,VALID,97.2027,VALID,-0.0339617,VALID,17.9046,VALID,70,VALID,0.182031,
1999-11-04, 00:40:00,VALID,0,VALID,97.8093,VALID,-0.0339617,VALID,17.9341,VALID,88,VALID,0,
1999-11-04, 00:41:00,VALID,0,VALID,98.0547,VALID,0,VALID,17.9503,VALID,116,VALID,0,
1999-11-04, 00:42:00,VALID,0,VALID,98.0928,VALID,-0.0169808,VALID,17.9372,VALID,132,VALID,0.169764,
1999-11-04, 00:43:00,VALID,0,VALID,98.0598,VALID,0,VALID,17.9205,VALID,213,VALID,0.0665118,
1999-11-04, 00:44:01,VALID,0,VALID,98.1157,VALID,0,VALID,17.9275,VALID,213,VALID,0.0010016,
1999-11-04, 00:45:00,VALID,0,VALID,98.4502,VALID,-0.0339617,VALID,17.9598,VALID,212,VALID,0,
1999-11-04, 00:46:00,VALID,0,VALID,98.3573,VALID,-0.0339617,VALID,17.9501,VALID,212,VALID,0,
1999-11-04, 00:47:00,VALID,0,VALID,98.1602,VALID,-0.0679233,VALID,17.9214,VALID,212,VALID,0,
1999-11-04, 00:48:00,VALID,0,VALID,98.4044,VALID,-0.0509425,VALID,17.9436,VALID,178,VALID,0.285567,
1999-11-04, 00:49:00,VALID,0,VALID,98.824,VALID,-0.0509425,VALID,18.0759,VALID,228,VALID,0.354167,
1999-11-04, 00:50:00,VALID,0,VALID,98.3701,VALID,-0.0339617,VALID,18.0436,VALID,281,VALID,0.11859,
1999-11-04, 00:51:00,VALID,0,VALID,98.4095,VALID,0,VALID,18.1115,VALID,282,VALID,0.644531,
1999-11-04, 00:52:00,VALID,0,VALID,98.2416,VALID,-0.0169808,VALID,18.1082,VALID,216,VALID,0.186738,
1999-11-04, 00:53:00,VALID,0,VALID,97.9364,VALID,-0.0339617,VALID,18.1119,VALID,108,VALID,0.440878,
1999-11-04, 00:54:00,VALID,0,VALID,97.0209,VALID,-0.0339617,VALID,18.0567,VALID,143,VALID,0.113281,
1999-11-04, 00:55:00,VALID,0,VALID,97.2536,VALID,-0.0339617,VALID,18.06,VALID,247,VALID,0.142228,
1999-11-04, 00:56:00,VALID,0,VALID,97.6198,VALID,-0.0339617,VALID,18.0729,VALID,185,VALID,0.371916,
1999-11-04, 00:57:00,VALID,0,VALID,97.4189,VALID,-0.0509425,VALID,18.057,VALID,158,VALID,0.0765625,
1999-11-04, 00:58:00,VALID,0,VALID,97.4316,VALID,-0.0169808,VALID,18.0632,VALID,158,VALID,0,
1999-11-04, 00:59:00,VALID,0,VALID,97.4329,VALID,-0.0679233,VALID,18.0471,VALID,158,VALID,0,
1999-11-04, 01:00:00,VALID,0,VALID,97.5473,VALID,-0.0339617,VALID,18.0408,VALID,158,VALID,0,
1999-11-04, 01:01:00,VALID,0,VALID,97.4342,VALID,-0.0849042,VALID,18.0083,VALID,130,VALID,0,
1999-11-04, 01:02:00,VALID,0,VALID,97.1455,VALID,-0.0169808,VALID,17.9602,VALID,124,VALID,0.0464638,
1999-11-04, 01:03:00,VALID,0,VALID,97.1506,VALID,-0.0679233,VALID,17.9178,VALID,100,VALID,0.529811,
1999-11-04, 01:04:00,VALID,0,VALID,97.8385,VALID,-0.0509425,VALID,17.9309,VALID,96,VALID,0.994141,
1999-11-04, 01:05:00,VALID,0,VALID,97.9886,VALID,-0.0679233,VALID,17.9115,VALID,93,VALID,0.671415,
1999-11-04, 01:06:01,VALID,0,VALID,98.4476,VALID,0.0339617,VALID,17.958,VALID,86,VALID,0.721628,
1999-11-04, 01:07:00,VALID,0,VALID,98.7439,VALID,0.0339617,VALID,18.0138,VALID,88,VALID,0.0137868,
1999-11-04, 01:08:00,VALID,0,VALID,98.913,VALID,0.0679233,VALID,18.0485,VALID,133,VALID,0,
1999-11-04, 01:09:00,VALID,0,VALID,98.9003,VALID,0.0509425,VALID,18.0685,VALID,127,VALID,0,
1999-11-04, 01:10:00,VALID,0,VALID,98.9474,VALID,0.0679233,VALID,18.0976,VALID,103,VALID,0,
1999-11-04, 01:11:00,VALID,0,VALID,98.9575,VALID,0.101885,VALID,18.0872,VALID,96,VALID,0.297447,
1999-11-04, 01:12:00,VALID,0,VALID,98.9842,VALID,0.0509425,VALID,18.1103,VALID,88,VALID,0.412373,
1999-11-04, 01:13:00,VALID,0,VALID,98.9893,VALID,0.0849042,VALID,18.1136,VALID,88,VALID,0.0384291,
1999-11-04, 01:14:00,VALID,0,VALID,98.941,VALID,0.0679233,VALID,18.1071,VALID,97,VALID,0.546875,
1999-11-04, 01:15:00,VALID,0,VALID,98.8838,VALID,0.0679233,VALID,18.081,VALID,93,VALID,0.313281,
1999-11-04, 01:16:00,VALID,0,VALID,98.9334,VALID,0.101885,VALID,18.0872,VALID,120,VALID,0.613387,
1999-11-04, 01:17:01,VALID,0,VALID,98.9397,VALID,0.0679233,VALID,18.1009,VALID,100,VALID,0.77793,
1999-11-04, 01:18:00,VALID,0,VALID,98.8914,VALID,0.0509425,VALID,18.0715,VALID,88,VALID,0.741554,
1999-11-04, 01:19:00,VALID,0,VALID,98.9614,VALID,0.0849042,VALID,18.0939,VALID,100,VALID,0.657728,
1999-11-04, 01:20:00,VALID,0,VALID,99.1839,VALID,0.0849042,VALID,18.1685,VALID,137,VALID,0.565104,
1999-11-04, 01:21:00,VALID,0,VALID,99.2119,VALID,-0.0509425,VALID,18.186,VALID,238,VALID,0.132212,
1999-11-04, 01:22:00,VALID,0,VALID,99.3085,VALID,-0.0169808,VALID,18.2308,VALID,138,VALID,0.9375,
1999-11-04, 01:23:00,VALID,0,VALID,99.2805,VALID,-0.0339617,VALID,18.2502,VALID,244,VALID,0.454564,
1999-11-04, 01:24:00,VALID,0,VALID,99.3428,VALID,-0.0169808,VALID,18.2664,VALID,118,VALID,0.787212,
1999-11-04, 01:25:00,VALID,0,VALID,99.3823,VALID,0,VALID,18.3214,VALID,93,VALID,0.211739,
1999-11-04, 01:26:00,VALID,0,VALID,99.3047,VALID,-0.0339617,VALID,18.3246,VALID,95,VALID,0.876603,
1999-11-04, 01:27:00,VALID,0,VALID,99.2615,VALID,-0.0339617,VALID,18.3474,VALID,131,VALID,0.631373,
1999-11-04, 01:28:00,VALID,0,VALID,99.2653,VALID,-0.0169808,VALID,18.3668,VALID,85,VALID,0.668064,
1999-11-04, 01:29:00,VALID,0,VALID,99.2373,VALID,-0.0509425,VALID,18.3698,VALID,185,VALID,0.3731,
1999-11-04, 01:30:00,VALID,0,VALID,99.3416,VALID,-0.0169808,VALID,18.4246,VALID,132,VALID,0.565972,
1999-11-04, 01:31:00,VALID,0,VALID,99.3772,VALID,-0.0169808,VALID,18.4696,VALID,133,VALID,0.64363,
1999-11-04, 01:32:00,VALID,0,VALID,99.3683,VALID,-0.0169808,VALID,18.5019,VALID,190,VALID,0.360609,
1999-11-04, 01:33:00,VALID,0,VALID,99.3912,VALID,-0.0339617,VALID,18.5315,VALID,277,VALID,0.000195313,
1999-11-04, 01:34:00,VALID,0,VALID,99.3556,VALID,-0.0169808,VALID,18.5412,VALID,142,VALID,0.939189,
1999-11-04, 01:35:00,VALID,0,VALID,99.2653,VALID,-0.0679233,VALID,18.525,VALID,120,VALID,0.627003,
1999-11-04, 01:36:00,VALID,0,VALID,99.2042,VALID,-0.0169808,VALID,18.5151,VALID,142,VALID,0.281672,
1999-11-04, 01:37:00,VALID,0,VALID,99.3416,VALID,-0.0849042,VALID,18.5444,VALID,191,VALID,0.279139,
1999-11-04, 01:38:00,VALID,0,VALID,99.3187,VALID,-0.0339617,VALID,18.57,VALID,181,VALID,0.449836,
1999-11-04, 01:39:00,VALID,0,VALID,99.3962,VALID,-0.0509425,VALID,18.6058,VALID,229,VALID,0.718339,
1999-11-04, 01:40:00,VALID,0,VALID,99.4725,VALID,-0.0339617,VALID,18.6705,VALID,131,VALID,0.740234,
1999-11-04, 01:41:00,VALID,0,VALID,99.4102,VALID,-0.0339617,VALID,18.6899,VALID,163,VALID,0.502298,
1999-11-04, 01:42:00,VALID,0,VALID,99.3454,VALID,-0.0509425,VALID,18.6996,VALID,103,VALID,0.633018,
1999-11-04, 01:43:00,VALID,0,VALID,99.3479,VALID,-0.0849042,VALID,18.7224,VALID,153,VALID,0.411305,
1999-11-04, 01:44:00,VALID,0,VALID,99.3772,VALID,-0.0509425,VALID,18.7481,VALID,110,VALID,0.586149,
1999-11-04, 01:45:00,VALID,0,VALID,99.395,VALID,-0.0339617,VALID,18.8125,VALID,83,VALID,0.420819,
1999-11-04, 01:46:00,VALID,0,VALID,99.4026,VALID,-0.0509425,VALID,18.8411,VALID,156,VALID,0.671053,
1999-11-04, 01:47:00,VALID,0,VALID,99.339,VALID,-0.0339617,VALID,18.8898,VALID,156,VALID,0.722561,
1999-11-04, 01:48:00,VALID,0,VALID,99.2284,VALID,-0.0169808,VALID,18.897,VALID,193,VALID,0.332981,
1999-11-04, 01:49:00,VALID,0,VALID,99.1165,VALID,-0.0339617,VALID,18.8774,VALID,168,VALID,0.459882,
1999-11-04, 01:50:00,VALID,0,VALID,98.941,VALID,0,VALID,18.8476,VALID,201,VALID,0.188939,
1999-11-04, 01:51:01,VALID,0,VALID,98.9219,VALID,-0.0339617,VALID,18.8515,VALID,103,VALID,1.12656,
1999-11-04, 01:52:00,VALID,0,VALID,98.8762,VALID,-0.0169808,VALID,18.8414,VALID,104,VALID,0.979096,
1999-11-04, 01:53:00,VALID,0,VALID,98.8851,VALID,-0.0169808,VALID,18.8317,VALID,177,VALID,0.49043,
1999-11-04, 01:54:00,VALID,0,VALID,98.9639,VALID,-0.0169808,VALID,18.8414,VALID,228,VALID,0.565245,
1999-11-04, 01:55:00,VALID,0,VALID,98.8075,VALID,0,VALID,18.809,VALID,45,VALID,0.69109,
1999-11-04, 01:56:00,VALID,0,VALID,98.7973,VALID,-0.0169808,VALID,18.7762,VALID,221,VALID,0.528245,
1999-11-04, 01:57:00,VALID,0,VALID,98.9029,VALID,-0.0509425,VALID,18.7959,VALID,145,VALID,0.831731,
1999-11-04, 01:58:00,VALID,0,VALID,98.9181,VALID,-0.0339617,VALID,18.8028,VALID,121,VALID,0.572846,
1999-11-04, 01:59:00,VALID,0,VALID,98.8011,VALID,-0.0339617,VALID,18.7799,VALID,116,VALID,0.289474,
1999-11-04, 02:00:00,VALID,0,VALID,98.8075,VALID,0,VALID,18.7506,VALID,175,VALID,0.204359,
1999-11-04, 02:01:01,VALID,0,VALID,98.8634,VALID,-0.0169808,VALID,18.7635,VALID,123,VALID,0.808694,
1999-11-04, 02:02:00,VALID,0,VALID,98.9079,VALID,-0.0169808,VALID,18.7633,VALID,130,VALID,0.931691,
1999-11-04, 02:03:00,VALID,0,VALID,98.9779,VALID,-0.0169808,VALID,18.7695,VALID,197,VALID,0.395354,
1999-11-04, 02:04:00,VALID,0,VALID,99.0262,VALID,-0.0679233,VALID,18.8058,VALID,133,VALID,0.540015,
1999-11-04, 02:05:00,VALID,0,VALID,99.072,VALID,0,VALID,18.8349,VALID,214,VALID,0.152449,
1999-11-04, 02:06:00,VALID,0,VALID,99.072,VALID,-0.0339617,VALID,18.8354,VALID,206,VALID,0.399089,
1999-11-04, 02:07:00,VALID,0,VALID,99.119,VALID,-0.0339617,VALID,18.8478,VALID,265,VALID,0.321114,
1999-11-04, 02:08:00,VALID,0,VALID,99.1292,VALID,-0.0339617,VALID,18.8702,VALID,246,VALID,0.526521,
1999-11-04, 02:09:00,VALID,0,VALID,99.0733,VALID,-0.0509425,VALID,18.8739,VALID,228,VALID,0.190625,
1999-11-04, 02:10:00,VALID,0,VALID,99.0275,VALID,-0.0339617,VALID,18.8637,VALID,172,VALID,0.414485,
1999-11-04, 02:11:00,VALID,0,VALID,99.0694,VALID,-0.0169808,VALID,18.8767,VALID,226,VALID,0.46234,
1999-11-04, 02:12:01,VALID,0,VALID,99.1419,VALID,-0.0679233,VALID,18.9159,VALID,303,VALID,0.422086,
1999-11-04, 02:13:00,VALID,0,VALID,99.086,VALID,-0.0339617,VALID,18.9284,VALID,59,VALID,0.557432,
1999-11-04, 02:14:00,VALID,0,VALID,98.9881,VALID,-0.0169808,VALID,18.9215,VALID,117,VALID,0.672081,
1999-11-04, 02:15:00,VALID,0,VALID,99.0211,VALID,-0.0339617,VALID,18.9543,VALID,110,VALID,1.0146,
1999-11-04, 02:16:00,VALID,0,VALID,99.0275,VALID,-0.0339617,VALID,18.9903,VALID,303,VALID,0.655664,
1999-11-04, 02:17:00,VALID,0,VALID,99.0987,VALID,0,VALID,19.0381,VALID,265,VALID,0.433134,
1999-11-04, 02:18:00,VALID,0,VALID,99.0542,VALID,-0.0169808,VALID,19.051,VALID,178,VALID,0.365132,
1999-11-04, 02:19:00,VALID,0,VALID,98.9753,VALID,0,VALID,19.061,VALID,134,VALID,0.390395,
1999-11-04, 02:20:00,VALID,0,VALID,98.9855,VALID,-0.0339617,VALID,19.0672,VALID,200,VALID,0.184333,
1999-11-04, 02:21:00,VALID,0,VALID,99.0249,VALID,0,VALID,19.0986,VALID,178,VALID,0.672086,
1999-11-04, 02:22:00,VALID,0,VALID,99.0084,VALID,0,VALID,19.1311,VALID,186,VALID,0.929071,
1999-11-04, 02:23:00,VALID,0,VALID,98.8024,VALID,0,VALID,19.1087,VALID,102,VALID,0.776867,
1999-11-04, 02:24:01,VALID,0,VALID,98.7948,VALID,0.0169808,VALID,19.1045,VALID,162,VALID,0.262247,
1999-11-04, 02:25:00,VALID,0,VALID,98.8062,VALID,0.0339617,VALID,19.1175,VALID,97,VALID,0,
1999-11-04, 02:26:00,VALID,0,VALID,98.8965,VALID,0.0339617,VALID,19.1466,VALID,70,VALID,0.50884,
1999-11-04, 02:27:00,VALID,0,VALID,98.7795,VALID,0,VALID,19.1309,VALID,113,VALID,0.730664,
1999-11-04, 02:28:00,VALID,0,VALID,98.7134,VALID,-0.0169808,VALID,19.108,VALID,139,VALID,0.103041,
1999-11-04, 02:29:00,VALID,0,VALID,98.7287,VALID,0,VALID,19.0916,VALID,211,VALID,0,
1999-11-04, 02:30:00,VALID,0,VALID,98.7299,VALID,0,VALID,19.0851,VALID,192,VALID,0,
1999-11-04, 02:31:00,VALID,0,VALID,98.7808,VALID,0,VALID,19.1018,VALID,303,VALID,0.917019,
1999-11-04, 02:32:00,VALID,0,VALID,98.6765,VALID,0.0339617,VALID,19.0789,VALID,84,VALID,1.28486,
1999-11-04, 02:33:00,VALID,0,VALID,98.8393,VALID,0,VALID,19.1276,VALID,179,VALID,0.391627,
1999-11-04, 02:34:00,VALID,0,VALID,98.8494,VALID,0.0339617,VALID,19.1433,VALID,260,VALID,0.769426,
1999-11-04, 02:35:01,VALID,0,VALID,98.838,VALID,-0.0169808,VALID,19.1563,VALID,176,VALID,0.889597,
1999-11-04, 02:36:00,VALID,0,VALID,98.7401,VALID,0,VALID,19.1403,VALID,119,VALID,0.442229,
1999-11-04, 02:37:00,VALID,0,VALID,98.6969,VALID,0.0169808,VALID,19.1304,VALID,132,VALID,0.53766,
1999-11-04, 02:38:00,VALID,0,VALID,98.7579,VALID,0.0169808,VALID,19.1463,VALID,26,VALID,0.951723,
1999-11-04, 02:39:00,VALID,0,VALID,98.7096,VALID,0,VALID,19.1364,VALID,324,VALID,0.541324,
1999-11-04, 02:40:00,VALID,0,VALID,98.7223,VALID,0,VALID,19.1269,VALID,294,VALID,0.240091,
1999-11-04, 02:41:00,VALID,0,VALID,98.7197,VALID,0,VALID,19.1177,VALID,231,VALID,0.675042,
1999-11-04, 02:42:00,VALID,0,VALID,98.6447,VALID,0.0169808,VALID,19.0854,VALID,255,VALID,0.536892,
1999-11-04, 02:43:00,VALID,0,VALID,98.7121,VALID,0,VALID,19.0819,VALID,269,VALID,0.247396,
1999-11-04, 02:44:00,VALID,0,VALID,98.7948,VALID,0,VALID,19.0886,VALID,130,VALID,0.770148,
1999-11-04, 02:45:00,VALID,0,VALID,98.8393,VALID,0,VALID,19.0951,VALID,19,VALID,0.958398,
1999-11-04, 02:46:01,VALID,0,VALID,98.7973,VALID,0.0169808,VALID,19.0881,VALID,14,VALID,0.619088,
1999-11-04, 02:47:00,VALID,0,VALID,98.7541,VALID,0.0339617,VALID,19.0819,VALID,112,VALID,1.03466,
1999-11-04, 02:48:00,VALID,0,VALID,98.6905,VALID,0,VALID,19.0498,VALID,91,VALID,0.681799,
1999-11-04, 02:49:00,VALID,0,VALID,98.6765,VALID,0,VALID,18.9981,VALID,77,VALID,0.602407,
1999-11-04, 02:50:00,VALID,0,VALID,98.7172,VALID,0.0169808,VALID,18.9718,VALID,144,VALID,0.208882,
1999-11-04, 02:51:00,VALID,0,VALID,98.7833,VALID,0.0169808,VALID,18.9422,VALID,278,VALID,0.482936,
1999-11-04, 02:52:00,VALID,0,VALID,98.8075,VALID,0.0339617,VALID,18.9397,VALID,207,VALID,0.662695,
1999-11-04, 02:53:00,VALID,0,VALID,98.9219,VALID,0,VALID,18.9461,VALID,141,VALID,0.780561,
1999-11-04, 02:54:00,VALID,0,VALID,98.9753,VALID,0,VALID,18.9491,VALID,231,VALID,0.600946,
1999-11-04, 02:55:00,VALID,0,VALID,99.0783,VALID,0,VALID,18.9916,VALID,183,VALID,0.214844,
1999-11-04, 02:56:00,VALID,0,VALID,99.0402,VALID,0,VALID,18.9983,VALID,138,VALID,0.521326,
1999-11-04, 02:57:01,VALID,0,VALID,98.9893,VALID,0.0169808,VALID,18.978,VALID,130,VALID,0.682221,
1999-11-04, 02:58:00,VALID,0,VALID,98.8431,VALID,0.0169808,VALID,18.9103,VALID,139,VALID,0.436914,
1999-11-04, 02:59:00,VALID,0,VALID,98.7897,VALID,0,VALID,18.9071,VALID,134,VALID,0.818598,
1999-11-04, 03:00:00,VALID,0,VALID,98.7808,VALID,0,VALID,18.9009,VALID,109,VALID,0.562711,
1999-11-04, 03:01:00,VALID,0,VALID,98.894,VALID,0,VALID,18.9205,VALID,43,VALID,0.845439,
1999-11-04, 03:02:00,VALID,0,VALID,98.8698,VALID,0,VALID,18.9334,VALID,94,VALID,0.982113,
1999-11-04, 03:03:00,VALID,0,VALID,98.7744,VALID,0.0169808,VALID,18.933,VALID,285,VALID,0.429102,
1999-11-04, 03:04:00,VALID,0,VALID,98.8177,VALID,0.0339617,VALID,18.9397,VALID,179,VALID,0.504856,
1999-11-04, 03:05:00,VALID,0,VALID,98.824,VALID,0,VALID,18.9588,VALID,178,VALID,0.179102,
1999-11-04, 03:06:00,VALID,0,VALID,98.8418,VALID,0.0169808,VALID,18.972,VALID,261,VALID,0.30152,
1999-11-04, 03:07:00,VALID,0,VALID,98.7986,VALID,0.0339617,VALID,18.9815,VALID,148,VALID,0.459037,
1999-11-04, 03:08:01,VALID,0,VALID,98.7274,VALID,0.0169808,VALID,18.9715,VALID,131,VALID,0.722356,
1999-11-04, 03:09:00,VALID,0,VALID,98.5722,VALID,0,VALID,18.9625,VALID,96,VALID,1.07011,
1999-11-04, 03:10:00,VALID,0,VALID,98.6498,VALID,0.0169808,VALID,18.9849,VALID,99,VALID,0.70587,
1999-11-04, 03:11:00,VALID,0,VALID,98.7083,VALID,0,VALID,19.0232,VALID,193,VALID,0.406044,
1999-11-04, 03:12:00,VALID,0,VALID,98.5557,VALID,0.0169808,VALID,19.0399,VALID,154,VALID,0.36801,
1999-11-04, 03:13:00,VALID,0,VALID,98.2938,VALID,0,VALID,18.9877,VALID,161,VALID,0.236178,
1999-11-04, 03:14:00,VALID,0,VALID,98.3624,VALID,0.0509425,VALID,18.9979,VALID,140,VALID,0.704127,
1999-11-04, 03:15:00,VALID,0,VALID,98.295,VALID,0.0169808,VALID,18.9914,VALID,133,VALID,0.25514,
1999-11-04, 03:16:00,VALID,0,VALID,98.2353,VALID,0.0169808,VALID,18.9785,VALID,105,VALID,0.700457,
1999-11-04, 03:17:00,VALID,0,VALID,98.173,VALID,0.0169808,VALID,18.965,VALID,117,VALID,0.495988,
1999-11-04, 03:18:00,VALID,0,VALID,98.1399,VALID,0.0169808,VALID,18.9489,VALID,121,VALID,0.622396,
1999-11-04, 03:19:01,VALID,0,VALID,98.2048,VALID,0.0169808,VALID,18.9362,VALID,193,VALID,0.369792,
1999-11-04, 03:20:00,VALID,0,VALID,98.0738,VALID,0,VALID,18.9011,VALID,111,VALID,0.643092,
1999-11-04, 03:21:00,VALID,0,VALID,98.0903,VALID,-0.0509425,VALID,18.8864,VALID,212,VALID,0.656836,
1999-11-04, 03:22:00,VALID,0,VALID,98.1412,VALID,-0.0679233,VALID,18.863,VALID,171,VALID,0.291807,
1999-11-04, 03:23:00,VALID,0,VALID,98.0928,VALID,-0.0509425,VALID,18.8309,VALID,122,VALID,0.474359,
1999-11-04, 03:24:00,VALID,0,VALID,98.2442,VALID,-0.0169808,VALID,18.8245,VALID,94,VALID,0.605785,
1999-11-04, 03:25:00,VALID,0,VALID,98.3434,VALID,-0.0339617,VALID,18.8076,VALID,130,VALID,0.787162,
1999-11-04, 03:26:00,VALID,0,VALID,98.2048,VALID,-0.0679233,VALID,18.7695,VALID,60,VALID,0.473684,
1999-11-04, 03:27:00,VALID,0,VALID,98.2798,VALID,0,VALID,18.7335,VALID,134,VALID,0.469778,
1999-11-04, 03:28:00,VALID,0,VALID,98.3904,VALID,-0.0679233,VALID,18.7501,VALID,99,VALID,0.586914,
1999-11-04, 03:29:01,VALID,0,VALID,98.384,VALID,-0.0339617,VALID,18.7277,VALID,144,VALID,0.0859375,
1999-11-04, 03:30:00,VALID,0,VALID,98.5481,VALID,0,VALID,18.7273,VALID,208,VALID,0.455592,
1999-11-04, 03:31:00,VALID,0,VALID,98.8088,VALID,-0.0509425,VALID,18.7695,VALID,222,VALID,0.910156,
1999-11-04, 03:32:00,VALID,0,VALID,98.7007,VALID,-0.0339617,VALID,18.7795,VALID,100,VALID,1.12817,
1999-11-04, 03:33:00,VALID,0,VALID,98.5455,VALID,-0.0169808,VALID,18.7668,VALID,154,VALID,0.449958,
1999-11-04, 03:34:00,VALID,0,VALID,98.66,VALID,-0.0509425,VALID,18.7857,VALID,108,VALID,1.24486,
1999-11-04, 03:35:00,VALID,0,VALID,98.6702,VALID,-0.0509425,VALID,18.7755,VALID,151,VALID,0.695503,
1999-11-04, 03:36:00,VALID,0,VALID,98.7299,VALID,-0.0509425,VALID,18.7924,VALID,76,VALID,0.739865,
1999-11-04, 03:37:00,VALID,0,VALID,98.7668,VALID,-0.0509425,VALID,18.7956,VALID,80,VALID,0.385557,
1999-11-04, 03:38:00,VALID,0,VALID,98.8037,VALID,-0.0679233,VALID,18.8058,VALID,94,VALID,0.651933,
1999-11-04, 03:39:00,VALID,0,VALID,98.7617,VALID,-0.101885,VALID,18.7795,VALID,71,VALID,1.07676,
1999-11-04, 03:40:00,VALID,0,VALID,98.7287,VALID,-0.101885,VALID,18.7601,VALID,99,VALID,0.718328,
1999-11-04, 03:41:00,VALID,0,VALID,98.6409,VALID,-0.0679233,VALID,18.7414,VALID,98,VALID,0.623438,
1999-11-04, 03:42:00,VALID,0,VALID,98.7693,VALID,-0.0679233,VALID,18.7571,VALID,118,VALID,0.964105,
1999-11-04, 03:43:00,VALID,0,VALID,98.7541,VALID,-0.0849042,VALID,18.7767,VALID,106,VALID,0.580025,
1999-11-04, 03:44:00,VALID,0,VALID,98.6918,VALID,-0.0849042,VALID,18.7603,VALID,126,VALID,0.391827,
1999-11-04, 03:45:00,VALID,0,VALID,98.6524,VALID,-0.0509425,VALID,18.7571,VALID,117,VALID,0.564103,
1999-11-04, 03:46:00,VALID,0,VALID,98.59,VALID,-0.0679233,VALID,18.7471,VALID,157,VALID,0.232897,
1999-11-04, 03:47:00,VALID,0,VALID,98.5811,VALID,-0.0849042,VALID,18.7404,VALID,200,VALID,0.427015,
1999-11-04, 03:48:00,VALID,0,VALID,98.6091,VALID,-0.0679233,VALID,18.7541,VALID,124,VALID,1.01234,
1999-11-04, 03:49:00,VALID,0,VALID,98.5621,VALID,-0.0509425,VALID,18.7467,VALID,126,VALID,0.923878,
1999-11-04, 03:50:00,VALID,0,VALID,98.4947,VALID,-0.0849042,VALID,18.7504,VALID,167,VALID,0.223157,
1999-11-04, 03:51:00,VALID,0,VALID,98.4273,VALID,-0.0679233,VALID,18.7275,VALID,123,VALID,0.44264,
1999-11-04, 03:52:00,VALID,0,VALID,98.3039,VALID,-0.0679233,VALID,18.7023,VALID,103,VALID,0.198171,
1999-11-04, 03:53:00,VALID,0,VALID,98.3179,VALID,-0.101885,VALID,18.6728,VALID,109,VALID,0.432644,
1999-11-04, 03:54:00,VALID,0,VALID,98.4286,VALID,-0.0679233,VALID,18.67,VALID,96,VALID,0.738064,
1999-11-04, 03:55:00,VALID,0,VALID,98.4425,VALID,-0.0679233,VALID,18.6508,VALID,44,VALID,0.639623,
1999-11-04, 03:56:00,VALID,0,VALID,98.5977,VALID,-0.101885,VALID,18.6571,VALID,89,VALID,0.370477,
1999-11-04, 03:57:00,VALID,0,VALID,98.6841,VALID,-0.0849042,VALID,18.6469,VALID,60,VALID,0.768164,
1999-11-04, 03:58:00,VALID,0,VALID,98.7185,VALID,-0.101885,VALID,18.6668,VALID,101,VALID,1.69088,
1999-11-04, 03:59:00,VALID,0,VALID,98.6206,VALID,-0.0679233,VALID,18.667,VALID,152,VALID,0.521434,
1999-11-04, 04:00:00,VALID,0,VALID,98.5748,VALID,-0.0679233,VALID,18.6534,VALID,89,VALID,0.570735,
1999-11-04, 04:01:00,VALID,0,VALID,98.5557,VALID,-0.101885,VALID,18.6474,VALID,111,VALID,0.027027,
1999-11-04, 04:02:00,VALID,0,VALID,98.501,VALID,-0.0679233,VALID,18.6213,VALID,90,VALID,1.14597,
1999-11-04, 04:03:00,VALID,0,VALID,98.3993,VALID,-0.0849042,VALID,18.5827,VALID,64,VALID,0.943462,
1999-11-04, 04:04:00,VALID,0,VALID,98.6587,VALID,-0.101885,VALID,18.5954,VALID,229,VALID,0.724805,
1999-11-04, 04:05:00,VALID,0,VALID,98.7579,VALID,-0.0679233,VALID,18.6344,VALID,155,VALID,0.654182,